Location: Slanting_Bridge
(35.6330°N, 80.9830°W)
Time: 02:15:11
(UTC-04:00)

Amateur Radio Satellites - All Passes

Search period start: 21 August 2014 01:45
Search period end: 22 August 2014 01:45
Location: Slanting_Bridge, 35.6330°N, 80.9830°W

Satellite Date Start Highest point End Downlink Frequencies (MHz)
Time Altitude Azimuth
KITSAT 1 21 Aug 01:57:14 02:05:15 71° 114° (ESE) 02:13:19 435.175 FM
Oscar 19 21 Aug 02:22:04 02:26:46 33° 97° (E) 02:31:25 437.125 CW, 437.150 USB
ITAMSAT 1 21 Aug 02:30:49 02:34:02 17° 93° (E) 02:37:15 435.822 SSB
AO-Echo 21 Aug 02:37:31 02:40:55 20° 94° (E) 02:44:18 ?
MaSat-1 21 Aug 02:42:42 02:47:05 39° 254° (WSW) 02:50:56 437.345 MHz
Uribyol 2 21 Aug 02:42:53 02:47:01 24° 96° (E) 02:51:08 436.500 FM
Saudisat 1A 21 Aug 02:53:18 02:56:52 24° 309° (NW) 03:00:27 436.775 MHz
Oscar 16 21 Aug 02:54:37 02:59:50 76° 102° (ESE) 03:05:01 437.025 USB, Beacon 2401.1428
AO-27 21 Aug 02:55:49 03:00:22 31° 97° (E) 03:04:54 436.795 MHz FM
TMSAT-1 21 Aug 03:21:58 03:25:15 17° 93° (E) 03:28:32 436.925 FM
JAS-1B 21 Aug 03:26:03 03:33:06 48° 98° (E) 03:39:03 435.800 - 435.900 CW/SSB
PCSat 21 Aug 03:38:19 03:38:38 10° 44° (NE) 03:38:56 145.825 MHz
KITSAT 1 21 Aug 03:54:48 04:01:19 26° 313° (NW) 04:07:53 435.175 FM
Gurwin Techsat 1B 21 Aug 04:01:30 04:06:45 59° 101° (E) 04:11:58 435.225 FM
Oscar 19 21 Aug 04:01:41 04:05:55 26° 292° (WNW) 04:10:07 437.125 CW, 437.150 USB
ITAMSAT 1 21 Aug 04:08:47 04:13:46 50° 288° (WNW) 04:18:44 435.822 SSB
AO-Echo 21 Aug 04:15:31 04:19:46 34° 289° (WNW) 04:23:59 ?
Uribyol 2 21 Aug 04:21:50 04:26:30 35° 290° (WNW) 04:31:10 436.500 FM
AO-7 21 Aug 04:25:12 04:30:48 20° 94° (E) 04:36:21 29.400 - 29.500 MHz
AO-27 21 Aug 04:35:25 04:39:44 28° 292° (WNW) 04:44:03 436.795 MHz FM
Oscar 16 21 Aug 04:36:34 04:38:29 12° 298° (WNW) 04:40:24 437.025 USB, Beacon 2401.1428
OPAL 21 Aug 04:41:36 04:46:31 64° 72° (ENE) 04:51:31 ?
Sapphire 21 Aug 04:47:15 04:52:12 35° 57° (ENE) 04:57:07 437.095 MHz 1200 baud AX-25 AFSK
Uosat F 21 Aug 04:56:24 05:00:32 26° 96° (E) 05:04:38 435.120 FM
TMSAT-1 21 Aug 05:00:18 05:05:25 51° 287° (WNW) 05:10:31 436.925 FM
JAS-1B 21 Aug 05:17:20 05:23:10 26° 299° (WNW) 05:28:19 435.800 - 435.900 CW/SSB
PCSat 21 Aug 05:17:37 05:23:02 70° 62° (ENE) 05:28:25 145.825 MHz
Gurwin Techsat 1B 21 Aug 05:43:06 05:46:10 16° 296° (WNW) 05:49:14 435.225 FM
STRAND 1 21 Aug 06:10:13 06:13:03 15° 64° (ENE) 06:15:52 ?
AO-7 21 Aug 06:15:57 06:24:14 76° 290° (WNW) 06:32:28 29.400 - 29.500 MHz
SO-50 21 Aug 06:22:48 06:26:58 41° 114° (ESE) 06:31:13 436.795 FM
OPAL 21 Aug 06:23:50 06:25:47 12° 267° (W) 06:27:46 ?
Sapphire 21 Aug 06:30:53 06:35:27 28° 252° (WSW) 06:39:59 437.095 MHz 1200 baud AX-25 AFSK
Uosat F 21 Aug 06:34:55 06:39:16 31° 291° (WNW) 06:43:36 435.120 FM
Hamsat 21 Aug 06:41:18 06:45:03 28° 96° (E) 06:48:47 145.90 MHz
JAS-2 21 Aug 06:59:53 07:04:41 38° 99° (E) 07:09:38 435.800 - 435.900 CW/SSB, 435.910 FM
PCSat 21 Aug 07:03:24 07:05:46 13° 257° (WSW) 07:08:09 145.825 MHz
UOSAT-12 21 Aug 07:42:39 07:45:58 20° 110° (ESE) 07:49:20 437.025 FM, 437.400 FM
STRAND 1 21 Aug 07:46:41 07:51:42 58° 259° (W) 07:56:45 ?
RS-15 21 Aug 08:03:29 08:09:38 17° 100° (E) 08:15:41 29.354 - 29.394 USB, Beacon 29.352 USB
SO-50 21 Aug 08:04:26 08:07:42 20° 311° (NW) 08:11:01 436.795 FM
AO-7 21 Aug 08:11:28 08:15:38 15° 308° (NW) 08:19:48 29.400 - 29.500 MHz
Hamsat 21 Aug 08:17:30 08:20:50 22° 291° (WNW) 08:24:09 145.90 MHz
SO-67 21 Aug 08:34:28 08:37:57 86° 284° (WNW) 08:41:24 435.3500 MHz FM
JAS-2 21 Aug 08:45:47 08:49:34 21° 293° (WNW) 08:53:25 435.800 - 435.900 CW/SSB, 435.910 FM
UOSAT-12 21 Aug 09:21:31 09:25:49 38° 305° (NW) 09:30:12 437.025 FM, 437.400 FM
Saudisat 1A 21 Aug 09:43:54 09:46:06 13° 46° (NE) 09:48:16 436.775 MHz
HO-68 21 Aug 09:51:55 09:58:33 40° 99° (E) 10:05:08 435.675 MHz FM
KITSAT 1 21 Aug 09:54:40 10:00:43 22° 44° (NE) 10:06:44 435.175 FM
RS-15 21 Aug 10:09:08 10:20:19 85° 117° (ESE) 10:31:16 29.354 - 29.394 USB, Beacon 29.352 USB
UKube-1 21 Aug 10:51:19 10:55:40 85° 104° (ESE) 11:00:00 145.840 MHz, 145.915 MHz
FUNcube-1 21 Aug 11:05:40 11:09:26 27° 97° (E) 11:13:15 145.950 - 145.970 MHz USB
Oscar 11 21 Aug 11:08:36 11:12:59 81° 102° (ESE) 11:17:20 145.825 FM, Beacon 2401.500 USB
Saudisat 1A 21 Aug 11:21:44 11:26:06 66° 243° (WSW) 11:30:27 436.775 MHz
HO-68 21 Aug 11:39:46 11:46:05 35° 295° (WNW) 11:52:23 435.675 MHz FM
KITSAT 1 21 Aug 11:48:57 11:57:03 84° 244° (WSW) 12:05:06 435.175 FM
RS-15 21 Aug 12:25:04 12:34:02 28° 321° (NW) 12:43:00 29.354 - 29.394 USB, Beacon 29.352 USB
FUNcube-1 21 Aug 12:42:09 12:45:42 24° 290° (WNW) 12:49:18 145.950 - 145.970 MHz USB
Oscar 19 21 Aug 13:36:09 13:40:48 36° 70° (ENE) 13:45:29 437.125 CW, 437.150 USB
ITAMSAT 1 21 Aug 13:46:08 13:49:48 20° 66° (ENE) 13:53:27 435.822 SSB
AO-Echo 21 Aug 13:47:29 13:51:24 22° 68° (ENE) 13:55:13 ?
KITSAT 1 21 Aug 13:47:46 13:51:13 13° 260° (W) 13:54:40 435.175 FM
Uribyol 2 21 Aug 13:58:03 14:02:21 27° 68° (ENE) 14:06:40 436.500 FM
JAS-1B 21 Aug 14:03:51 14:12:49 42° 66° (ENE) 14:21:26 435.800 - 435.900 CW/SSB
Oscar 16 21 Aug 14:08:37 14:13:44 81° 76° (ENE) 14:18:55 437.025 USB, Beacon 2401.1428
AO-27 21 Aug 14:11:09 14:15:49 35° 70° (ENE) 14:20:31 436.795 MHz FM
ISS 21 Aug 14:38:13 14:41:31 85° 318° (NW) 14:44:51 145.800 FM
TMSAT-1 21 Aug 14:39:56 14:43:44 21° 66° (ENE) 14:47:33 436.925 FM
RS-15 21 Aug 14:48:16 14:52:03 12° 356° (N) 14:55:52 29.354 - 29.394 USB, Beacon 29.352 USB
MaSat-1 21 Aug 14:53:18 14:55:39 14° 99° (E) 14:58:07 437.345 MHz
SO-50 21 Aug 14:57:31 15:01:05 20° 49° (NE) 15:04:40 436.795 FM
Oscar 19 21 Aug 15:16:11 15:20:11 23° 265° (W) 15:24:13 437.125 CW, 437.150 USB
Gurwin Techsat 1B 21 Aug 15:19:37 15:24:53 70° 75° (ENE) 15:30:10 435.225 FM
AO-7 21 Aug 15:21:28 15:27:35 23° 57° (ENE) 15:33:41 29.400 - 29.500 MHz
ITAMSAT 1 21 Aug 15:24:00 15:28:56 44° 261° (W) 15:33:52 435.822 SSB
AO-Echo 21 Aug 15:25:02 15:29:53 39° 261° (W) 15:34:39 ?
Uribyol 2 21 Aug 15:37:11 15:41:42 31° 263° (W) 15:46:14 436.500 FM
AO-27 21 Aug 15:51:15 15:55:21 24° 264° (W) 15:59:29 436.795 MHz FM
JAS-1B 21 Aug 15:53:28 16:02:55 51° 261° (W) 16:12:12 435.800 - 435.900 CW/SSB
Uosat F 21 Aug 16:06:59 16:11:09 27° 68° (ENE) 16:15:20 435.120 FM
UOSAT-12 21 Aug 16:16:27 16:17:22 11° 42° (NE) 16:18:16 437.025 FM, 437.400 FM
ISS 21 Aug 16:17:07 16:18:42 13° 335° (NNW) 16:20:16 145.800 FM
TMSAT-1 21 Aug 16:18:17 16:23:18 44° 261° (W) 16:28:21 436.925 FM
MaSat-1 21 Aug 16:27:33 16:32:06 56° 296° (WNW) 16:37:06 437.345 MHz
PANSAT 21 Aug 16:31:23 16:33:24 14° 162° (SSE) 16:35:25 not established
SO-50 21 Aug 16:37:15 16:41:51 46° 245° (WSW) 16:46:28 436.795 FM
OPAL 21 Aug 16:55:09 16:59:09 22° 97° (E) 17:03:08 ?
RS-15 21 Aug 17:02:38 17:10:45 22° 34° (NNE) 17:19:01 29.354 - 29.394 USB, Beacon 29.352 USB
Gurwin Techsat 1B 21 Aug 17:03:21 17:05:17 12° 269° (W) 17:07:14 435.225 FM
AO-7 21 Aug 17:11:12 17:19:32 74° 254° (WSW) 17:27:54 29.400 - 29.500 MHz
JAS-2 21 Aug 17:11:21 17:14:38 14° 64° (ENE) 17:17:45 435.800 - 435.900 CW/SSB, 435.910 FM
Hamsat 21 Aug 17:33:10 17:35:30 15° 67° (ENE) 17:37:51 145.90 MHz
Uosat F 21 Aug 17:45:27 17:49:48 30° 263° (W) 17:54:11 435.120 FM
UOSAT-12 21 Aug 17:53:32 17:58:17 80° 60° (ENE) 18:02:55 437.025 FM, 437.400 FM
PANSAT 21 Aug 18:09:49 18:13:02 26° 174° (S) 18:16:15 not established
PCSat 21 Aug 18:16:30 18:18:51 13° 103° (ESE) 18:21:12 145.825 MHz
OPAL 21 Aug 18:33:16 18:38:06 39° 291° (WNW) 18:42:55 ?
JAS-2 21 Aug 18:52:11 18:59:09 82° 257° (WSW) 19:05:17 435.800 - 435.900 CW/SSB, 435.910 FM
SO-67 21 Aug 19:05:32 19:08:00 19° 71° (ENE) 19:10:29 435.3500 MHz FM
Hamsat 21 Aug 19:07:03 19:11:04 41° 262° (W) 19:15:09 145.90 MHz
AO-7 21 Aug 19:11:32 19:13:26 11° 270° (W) 19:15:20 29.400 - 29.500 MHz
RS-15 21 Aug 19:14:09 19:25:18 75° 59° (ENE) 19:36:53 29.354 - 29.394 USB, Beacon 29.352 USB
Sapphire 21 Aug 19:25:44 19:31:00 58° 112° (ESE) 19:36:19 437.095 MHz 1200 baud AX-25 AFSK
PANSAT 21 Aug 19:49:34 19:52:47 25° 187° (S) 19:55:59 not established
PCSat 21 Aug 19:56:12 20:01:35 70° 298° (WNW) 20:07:00 145.825 MHz
STRAND 1 21 Aug 20:00:13 20:05:16 60° 101° (ESE) 20:10:17 ?
HO-68 21 Aug 20:18:40 20:23:56 23° 61° (ENE) 20:29:12 435.675 MHz FM
SO-67 21 Aug 20:38:23 20:40:56 19° 265° (W) 20:43:29 435.3500 MHz FM
ISS 21 Aug 21:09:38 21:12:39 31° 35° (NE) 21:15:40 145.800 FM
Sapphire 21 Aug 21:11:01 21:14:48 19° 310° (NW) 21:18:36 437.095 MHz 1200 baud AX-25 AFSK
RS-15 21 Aug 21:28:04 21:36:35 26° 257° (WSW) 21:45:26 29.354 - 29.394 USB, Beacon 29.352 USB
PANSAT 21 Aug 21:30:27 21:32:25 14° 199° (SSW) 21:34:22 not established
STRAND 1 21 Aug 21:41:14 21:43:54 14° 296° (WNW) 21:46:34 ?
UKube-1 21 Aug 21:43:52 21:48:04 49° 73° (ENE) 21:52:17 145.840 MHz, 145.915 MHz
PCSat 21 Aug 21:45:43 21:45:59 10° 316° (NW) 21:46:16 145.825 MHz
Oscar 11 21 Aug 22:00:45 22:04:49 42° 73° (ENE) 22:08:55 145.825 FM, Beacon 2401.500 USB
FUNcube-1 21 Aug 22:00:57 22:03:13 14° 67° (ENE) 22:05:29 145.950 - 145.970 MHz USB
HO-68 21 Aug 22:03:58 22:11:02 64° 257° (WSW) 22:18:07 435.675 MHz FM
ISS 21 Aug 22:46:36 22:49:16 22° 230° (SW) 22:51:55 145.800 FM
UKube-1 21 Aug 23:22:52 23:24:31 12° 267° (W) 23:26:09 145.840 MHz, 145.915 MHz
FUNcube-1 21 Aug 23:35:24 23:39:16 38° 262° (W) 23:43:10 145.950 - 145.970 MHz USB
Oscar 11 21 Aug 23:38:59 23:41:11 14° 267° (W) 23:43:23 145.825 FM, Beacon 2401.500 USB
KITSAT 1 22 Aug 00:21:46 00:26:53 18° 102° (ESE) 00:31:59 435.175 FM
MaSat-1 22 Aug 00:49:26 00:52:44 18° 53° (NE) 00:55:47 437.345 MHz
Saudisat 1A 22 Aug 01:25:10 01:29:31 66° 117° (ESE) 01:33:55 436.775 MHz
